,,Stat6,,Stat2,,Stat8,,Stat9,,Stat10,,Wind1,,Wind1,
time,status,PA1M_AVG,status,PR1M_SUM,status,RH1M_AVG,status,SR1M_AVG,status,TA1M_AVG,status,W1dAve1m,status,W1sAve1m,
2004-07-12, 00:00:00,VALID,918.14,VALID,0,VALID,99.4891,VALID,-0.0679233,VALID,19.3259,VALID,106,VALID,0.552641,
2004-07-12, 00:01:00,VALID,918.113,VALID,0,VALID,99.442,VALID,-0.0679233,VALID,19.3164,VALID,96,VALID,0.695122,
2004-07-12, 00:02:00,VALID,918.094,VALID,0,VALID,99.4191,VALID,-0.0509425,VALID,19.3063,VALID,92,VALID,0.683321,
2004-07-12, 00:03:00,VALID,918.066,VALID,0,VALID,99.2754,VALID,-0.0849042,VALID,19.2867,VALID,92,VALID,0.716704,
2004-07-12, 00:04:00,VALID,918.065,VALID,0,VALID,99.2538,VALID,-0.101885,VALID,19.2712,VALID,92,VALID,0.646839,
2004-07-12, 00:05:00,VALID,918.047,VALID,0,VALID,99.306,VALID,-0.0679233,VALID,19.2546,VALID,92,VALID,0.704799,
2004-07-12, 00:06:00,VALID,918.028,VALID,0,VALID,99.3606,VALID,-0.0849042,VALID,19.2482,VALID,92,VALID,0.719658,
2004-07-12, 00:07:00,VALID,918.001,VALID,0,VALID,99.367,VALID,-0.0339617,VALID,19.2447,VALID,91,VALID,0.612351,
2004-07-12, 00:08:00,VALID,917.974,VALID,0,VALID,99.2996,VALID,0,VALID,19.232,VALID,81,VALID,0.858665,
2004-07-12, 00:09:00,VALID,917.946,VALID,0,VALID,99.2119,VALID,0,VALID,19.2315,VALID,78,VALID,0.674851,
2004-07-12, 00:10:00,VALID,917.925,VALID,0,VALID,99.0872,VALID,0.0169808,VALID,19.2283,VALID,76,VALID,0.606027,
2004-07-12, 00:11:00,VALID,917.903,VALID,0,VALID,98.9982,VALID,0,VALID,19.2119,VALID,76,VALID,0.634527,
2004-07-12, 00:12:00,VALID,917.881,VALID,0,VALID,98.8952,VALID,-0.0169808,VALID,19.2126,VALID,76,VALID,0.698401,
2004-07-12, 00:13:00,VALID,917.879,VALID,0,VALID,98.7439,VALID,0,VALID,19.2027,VALID,76,VALID,0.762767,
2004-07-12, 00:14:00,VALID,917.884,VALID,0,VALID,98.5417,VALID,-0.0169808,VALID,19.1863,VALID,117,VALID,1.05373,
2004-07-12, 00:15:00,VALID,917.898,VALID,0,VALID,98.4692,VALID,-0.0169808,VALID,19.1538,VALID,134,VALID,1.31181,
2004-07-12, 00:16:00,VALID,917.898,VALID,0,VALID,98.5875,VALID,0,VALID,19.1506,VALID,113,VALID,0.963728,
2004-07-12, 00:17:00,VALID,917.907,VALID,0,VALID,98.7287,VALID,0,VALID,19.119,VALID,106,VALID,0.919643,
2004-07-12, 00:18:00,VALID,917.904,VALID,0,VALID,99.147,VALID,0,VALID,19.0991,VALID,84,VALID,0.603871,
2004-07-12, 00:19:00,VALID,917.901,VALID,0,VALID,99.3314,VALID,-0.0339617,VALID,19.1063,VALID,73,VALID,0.764172,
2004-07-12, 00:20:00,VALID,917.893,VALID,0,VALID,99.3721,VALID,-0.0169808,VALID,19.08,VALID,65,VALID,0.729725,
2004-07-12, 00:21:00,VALID,917.873,VALID,0,VALID,99.4293,VALID,-0.0339617,VALID,19.0547,VALID,83,VALID,0.675037,
2004-07-12, 00:22:00,VALID,917.853,VALID,0,VALID,99.5755,VALID,-0.0169808,VALID,19.0284,VALID,94,VALID,0.780506,
2004-07-12, 00:23:00,VALID,917.834,VALID,0,VALID,99.5997,VALID,-0.0169808,VALID,19.0092,VALID,102,VALID,0.577553,
2004-07-12, 00:24:00,VALID,917.807,VALID,0,VALID,99.6785,VALID,0,VALID,18.9901,VALID,106,VALID,0.854911,
2004-07-12, 00:25:00,VALID,917.788,VALID,0,VALID,99.751,VALID,0,VALID,18.9677,VALID,118,VALID,0.833934,
2004-07-12, 00:26:00,VALID,917.772,VALID,0,VALID,99.8489,VALID,-0.0169808,VALID,18.9384,VALID,118,VALID,0.99814,
2004-07-12, 00:27:00,VALID,917.76,VALID,0,VALID,99.9903,VALID,-0.0169808,VALID,18.9384,VALID,118,VALID,0.991235,
2004-07-12, 00:28:00,VALID,917.761,VALID,0,VALID,100,VALID,0,VALID,18.931,VALID,118,VALID,1.03006,
2004-07-12, 00:29:00,VALID,917.767,VALID,0,VALID,100,VALID,0.0169808,VALID,18.9211,VALID,118,VALID,1.09801,
2004-07-12, 00:30:00,VALID,917.768,VALID,0,VALID,100,VALID,0,VALID,18.9377,VALID,115,VALID,1.05069,
2004-07-12, 00:31:00,VALID,917.77,VALID,0,VALID,100,VALID,-0.0169808,VALID,18.9377,VALID,104,VALID,0.932546,
2004-07-12, 00:32:00,VALID,917.771,VALID,0,VALID,100,VALID,-0.0169808,VALID,18.9382,VALID,88,VALID,1.20889,
2004-07-12, 00:33:00,VALID,917.766,VALID,0,VALID,100,VALID,-0.0339617,VALID,18.9417,VALID,84,VALID,1.31479,
2004-07-12, 00:34:00,VALID,917.765,VALID,0,VALID,100,VALID,0,VALID,18.9191,VALID,75,VALID,1.33239,
2004-07-12, 00:35:00,VALID,917.748,VALID,0,VALID,100,VALID,-0.0169808,VALID,18.9089,VALID,76,VALID,1.34102,
2004-07-12, 00:36:00,VALID,917.729,VALID,0,VALID,100,VALID,-0.0169808,VALID,18.9128,VALID,75,VALID,1.11133,
2004-07-12, 00:37:00,VALID,917.694,VALID,0,VALID,100,VALID,-0.0169808,VALID,18.8895,VALID,83,VALID,0.992914,
2004-07-12, 00:38:00,VALID,917.669,VALID,0,VALID,100,VALID,-0.0169808,VALID,18.8865,VALID,84,VALID,1.02972,
2004-07-12, 00:39:00,VALID,917.644,VALID,0,VALID,100,VALID,-0.0169808,VALID,18.8935,VALID,90,VALID,1.05954,
2004-07-12, 00:40:00,VALID,917.648,VALID,0,VALID,100,VALID,0,VALID,18.9061,VALID,89,VALID,1.06719,
2004-07-12, 00:41:00,VALID,917.631,VALID,0,VALID,100,VALID,0,VALID,18.9029,VALID,72,VALID,0.847834,
2004-07-12, 00:42:00,VALID,917.618,VALID,0,VALID,99.9034,VALID,0,VALID,18.887,VALID,94,VALID,0.755208,
2004-07-12, 00:43:00,VALID,917.608,VALID,0,VALID,99.7434,VALID,0,VALID,18.8319,VALID,109,VALID,0.941939,
2004-07-12, 00:44:00,VALID,917.596,VALID,0,VALID,99.7904,VALID,-0.0169808,VALID,18.8128,VALID,109,VALID,0.914418,
2004-07-12, 00:45:00,VALID,917.578,VALID,0,VALID,99.8388,VALID,0,VALID,18.7872,VALID,114,VALID,0.951349,
2004-07-12, 00:46:00,VALID,917.566,VALID,0,VALID,99.9354,VALID,0,VALID,18.7775,VALID,113,VALID,0.701982,
2004-07-12, 00:47:00,VALID,917.534,VALID,0,VALID,99.9629,VALID,0,VALID,18.7579,VALID,118,VALID,0.9109,
2004-07-12, 00:48:00,VALID,917.535,VALID,0,VALID,99.9906,VALID,0,VALID,18.7415,VALID,124,VALID,0.815451,
2004-07-12, 00:49:00,VALID,917.514,VALID,0,VALID,100,VALID,-0.0169808,VALID,18.7544,VALID,124,VALID,0.924924,
2004-07-12, 00:50:00,VALID,917.497,VALID,0,VALID,100,VALID,-0.0169808,VALID,18.745,VALID,110,VALID,0.762277,
2004-07-12, 00:51:00,VALID,917.486,VALID,0,VALID,100,VALID,-0.0169808,VALID,18.7323,VALID,123,VALID,0.727289,
2004-07-12, 00:52:00,VALID,917.468,VALID,0,VALID,100,VALID,0.0339617,VALID,18.7246,VALID,127,VALID,0.546113,
2004-07-12, 00:53:00,VALID,917.466,VALID,0,VALID,100,VALID,0,VALID,18.7152,VALID,118,VALID,0.783296,
2004-07-12, 00:54:00,VALID,917.468,VALID,0,VALID,100,VALID,0,VALID,18.7246,VALID,122,VALID,0.581745,
2004-07-12, 00:55:00,VALID,917.461,VALID,0,VALID,100,VALID,-0.0169808,VALID,18.7251,VALID,127,VALID,0.655849,
2004-07-12, 00:56:00,VALID,917.45,VALID,0,VALID,100,VALID,-0.0169808,VALID,18.7283,VALID,143,VALID,0.723366,
2004-07-12, 00:57:00,VALID,917.451,VALID,0,VALID,100,VALID,0,VALID,18.7251,VALID,161,VALID,0.410065,
2004-07-12, 00:58:00,VALID,917.443,VALID,0,VALID,100,VALID,0,VALID,18.7154,VALID,145,VALID,0.333757,
2004-07-12, 00:59:00,VALID,917.418,VALID,0,VALID,100,VALID,0,VALID,18.712,VALID,138,VALID,0.341319,
2004-07-12, 01:00:00,VALID,917.398,VALID,0,VALID,100,VALID,0,VALID,18.7152,VALID,148,VALID,0.252604,
2004-07-12, 01:01:00,VALID,917.385,VALID,0,VALID,100,VALID,0,VALID,18.7087,VALID,147,VALID,0.196801,
2004-07-12, 01:02:00,VALID,917.371,VALID,0,VALID,100,VALID,0,VALID,18.6889,VALID,120,VALID,0.377418,
2004-07-12, 01:03:00,VALID,917.358,VALID,0,VALID,100,VALID,0,VALID,18.6829,VALID,119,VALID,0.591488,
2004-07-12, 01:04:00,VALID,917.359,VALID,0,VALID,100,VALID,0.0169808,VALID,18.6603,VALID,123,VALID,0.654576,
2004-07-12, 01:05:00,VALID,917.344,VALID,0,VALID,100,VALID,0,VALID,18.6437,VALID,140,VALID,0.212636,
2004-07-12, 01:06:00,VALID,917.339,VALID,0,VALID,100,VALID,-0.0169808,VALID,18.6379,VALID,122,VALID,0.495458,
2004-07-12, 01:07:00,VALID,917.332,VALID,0,VALID,100,VALID,0,VALID,18.6439,VALID,115,VALID,0.254102,
2004-07-12, 01:08:00,VALID,917.34,VALID,0,VALID,100,VALID,0,VALID,18.6573,VALID,124,VALID,0.261991,
2004-07-12, 01:09:00,VALID,917.333,VALID,0,VALID,100,VALID,0.0169808,VALID,18.6792,VALID,172,VALID,0.378711,
2004-07-12, 01:10:00,VALID,917.313,VALID,0,VALID,100,VALID,0.0169808,VALID,18.7154,VALID,196,VALID,0.347301,
2004-07-12, 01:11:00,VALID,917.303,VALID,0,VALID,100,VALID,0,VALID,18.7316,VALID,200,VALID,0.046875,
2004-07-12, 01:12:00,VALID,917.306,VALID,0,VALID,100,VALID,-0.0169808,VALID,18.7313,VALID,200,VALID,0,
2004-07-12, 01:13:00,VALID,917.287,VALID,0,VALID,100,VALID,0,VALID,18.7055,VALID,160,VALID,0.290838,
2004-07-12, 01:14:00,VALID,917.262,VALID,0,VALID,100,VALID,0,VALID,18.6605,VALID,75,VALID,0.580729,
2004-07-12, 01:15:00,VALID,917.245,VALID,0,VALID,99.9285,VALID,0.0169808,VALID,18.5861,VALID,61,VALID,0.664807,
2004-07-12, 01:16:00,VALID,917.238,VALID,0,VALID,99.9802,VALID,-0.0169808,VALID,18.5473,VALID,73,VALID,0.903764,
2004-07-12, 01:17:00,VALID,917.231,VALID,0,VALID,100,VALID,0.0169808,VALID,18.5575,VALID,102,VALID,0.68314,
2004-07-12, 01:18:00,VALID,917.225,VALID,0,VALID,100,VALID,0,VALID,18.5605,VALID,124,VALID,1.04179,
2004-07-12, 01:19:00,VALID,917.228,VALID,0,VALID,100,VALID,0,VALID,18.5898,VALID,135,VALID,0.891578,
2004-07-12, 01:20:00,VALID,917.225,VALID,0,VALID,100,VALID,0,VALID,18.5925,VALID,144,VALID,1.06286,
2004-07-12, 01:21:00,VALID,917.229,VALID,0,VALID,100,VALID,0,VALID,18.6089,VALID,136,VALID,0.811967,
2004-07-12, 01:22:00,VALID,917.221,VALID,0,VALID,100,VALID,0,VALID,18.6382,VALID,134,VALID,0.942406,
2004-07-12, 01:23:00,VALID,917.21,VALID,0,VALID,100,VALID,0,VALID,18.6633,VALID,147,VALID,0.86319,
2004-07-12, 01:24:00,VALID,917.196,VALID,0,VALID,100,VALID,0,VALID,18.709,VALID,137,VALID,0.512355,
2004-07-12, 01:25:00,VALID,917.191,VALID,0,VALID,100,VALID,0,VALID,18.7286,VALID,128,VALID,0.884487,
2004-07-12, 01:26:00,VALID,917.165,VALID,0,VALID,100,VALID,0,VALID,18.7316,VALID,133,VALID,0.969131,
2004-07-12, 01:27:00,VALID,917.132,VALID,0,VALID,100,VALID,0,VALID,18.7383,VALID,133,VALID,1.28683,
2004-07-12, 01:28:00,VALID,917.093,VALID,0,VALID,100,VALID,0.0169808,VALID,18.7611,VALID,134,VALID,1.19691,
2004-07-12, 01:29:00,VALID,917.059,VALID,0,VALID,100,VALID,0,VALID,18.7477,VALID,131,VALID,0.94478,
2004-07-12, 01:30:00,VALID,917.025,VALID,0,VALID,100,VALID,0,VALID,18.738,VALID,109,VALID,1.0066,
2004-07-12, 01:31:00,VALID,917.001,VALID,0,VALID,100,VALID,0,VALID,18.7219,VALID,110,VALID,0.976017,
2004-07-12, 01:32:00,VALID,916.984,VALID,0,VALID,100,VALID,0,VALID,18.7094,VALID,127,VALID,1.1127,
2004-07-12, 01:33:00,VALID,916.967,VALID,0,VALID,100,VALID,0,VALID,18.7152,VALID,132,VALID,1.01417,
2004-07-12, 01:34:00,VALID,916.956,VALID,0,VALID,100,VALID,-0.0169808,VALID,18.738,VALID,149,VALID,1.11496,
2004-07-12, 01:35:00,VALID,916.942,VALID,0,VALID,100,VALID,0,VALID,18.7569,VALID,152,VALID,1.06321,
2004-07-12, 01:36:00,VALID,916.941,VALID,0,VALID,100,VALID,0.0169808,VALID,18.7828,VALID,144,VALID,0.884896,
2004-07-12, 01:37:00,VALID,916.935,VALID,0,VALID,100,VALID,0,VALID,18.7996,VALID,159,VALID,0.71005,
2004-07-12, 01:38:00,VALID,916.918,VALID,0,VALID,100,VALID,0,VALID,18.8026,VALID,137,VALID,0.906068,
2004-07-12, 01:39:00,VALID,916.919,VALID,0,VALID,100,VALID,0,VALID,18.7996,VALID,133,VALID,0.882813,
2004-07-12, 01:40:00,VALID,916.911,VALID,0,VALID,100,VALID,0,VALID,18.7865,VALID,135,VALID,0.491425,
2004-07-12, 01:41:00,VALID,916.903,VALID,0,VALID,100,VALID,0,VALID,18.7705,VALID,141,VALID,0.772905,
2004-07-12, 01:42:00,VALID,916.881,VALID,0,VALID,100,VALID,0,VALID,18.7535,VALID,157,VALID,0.691406,
2004-07-12, 01:43:00,VALID,916.877,VALID,0,VALID,100,VALID,0.0169808,VALID,18.7567,VALID,163,VALID,1.00629,
2004-07-12, 01:44:00,VALID,916.87,VALID,0,VALID,100,VALID,0,VALID,18.7798,VALID,159,VALID,1.12355,
2004-07-12, 01:45:00,VALID,916.852,VALID,0,VALID,100,VALID,-0.0339617,VALID,18.7894,VALID,167,VALID,1.10919,
2004-07-12, 01:46:00,VALID,916.864,VALID,0,VALID,100,VALID,0,VALID,18.8058,VALID,139,VALID,1.16921,
2004-07-12, 01:47:00,VALID,916.856,VALID,0,VALID,100,VALID,0,VALID,18.8091,VALID,165,VALID,1.12216,
2004-07-12, 01:48:00,VALID,916.851,VALID,0,VALID,100,VALID,0,VALID,18.8222,VALID,172,VALID,0.714472,
2004-07-12, 01:49:00,VALID,916.841,VALID,0,VALID,100,VALID,0,VALID,18.819,VALID,162,VALID,0.34048,
2004-07-12, 01:50:00,VALID,916.83,VALID,0,VALID,100,VALID,0,VALID,18.825,VALID,170,VALID,1.11042,
2004-07-12, 01:51:00,VALID,916.824,VALID,0,VALID,100,VALID,0,VALID,18.8217,VALID,164,VALID,1.20655,
2004-07-12, 01:52:00,VALID,916.797,VALID,0,VALID,100,VALID,0.101885,VALID,18.8443,VALID,170,VALID,1.16988,
2004-07-12, 01:53:00,VALID,916.785,VALID,0,VALID,100,VALID,0.0509425,VALID,18.8406,VALID,170,VALID,1.28561,
2004-07-12, 01:54:00,VALID,916.759,VALID,0,VALID,100,VALID,0.0509425,VALID,18.8439,VALID,170,VALID,1.2951,
2004-07-12, 01:55:01,VALID,916.748,VALID,0,VALID,100,VALID,0.0679233,VALID,18.8769,VALID,163,VALID,0.938953,
2004-07-12, 01:56:00,VALID,916.751,VALID,0,VALID,100,VALID,0,VALID,18.8734,VALID,162,VALID,0.729688,
2004-07-12, 01:57:01,VALID,916.743,VALID,0,VALID,100,VALID,0.0169808,VALID,18.8794,VALID,147,VALID,0.58939,
2004-07-12, 01:58:01,VALID,916.758,VALID,0,VALID,100,VALID,0.0169808,VALID,18.8962,VALID,149,VALID,0.911994,
2004-07-12, 01:59:00,VALID,916.768,VALID,0,VALID,100,VALID,0.0169808,VALID,18.8962,VALID,126,VALID,0.574505,
2004-07-12, 02:00:01,VALID,916.774,VALID,0,VALID,100,VALID,0.0679233,VALID,18.9054,VALID,126,VALID,0.79178,
2004-07-12, 02:01:00,VALID,916.771,VALID,0,VALID,100,VALID,0.0679233,VALID,18.8985,VALID,124,VALID,1.1413,
2004-07-12, 02:02:00,VALID,916.777,VALID,0,VALID,100,VALID,0.0509425,VALID,18.8985,VALID,101,VALID,1.03779,
2004-07-12, 02:03:00,VALID,916.787,VALID,0,VALID,100,VALID,0.0339617,VALID,18.8858,VALID,86,VALID,0.82641,
2004-07-12, 02:04:01,VALID,916.788,VALID,0,VALID,100,VALID,0.0169808,VALID,18.8699,VALID,108,VALID,0.694727,
2004-07-12, 02:05:01,VALID,916.79,VALID,0,VALID,100,VALID,0.0509425,VALID,18.8498,VALID,100,VALID,0.412348,
2004-07-12, 02:06:00,VALID,916.786,VALID,0,VALID,100,VALID,0,VALID,18.8764,VALID,95,VALID,1.23881,
2004-07-12, 02:07:00,VALID,916.783,VALID,0,VALID,100,VALID,0.0339617,VALID,18.8992,VALID,138,VALID,1.32448,
2004-07-12, 02:08:00,VALID,916.799,VALID,0,VALID,100,VALID,0.0849042,VALID,18.9243,VALID,135,VALID,1.41442,
2004-07-12, 02:09:00,VALID,916.788,VALID,0,VALID,100,VALID,0.0679233,VALID,18.9439,VALID,122,VALID,1.14746,
2004-07-12, 02:10:01,VALID,916.792,VALID,0,VALID,100,VALID,0.0509425,VALID,18.9474,VALID,127,VALID,0.752804,
2004-07-12, 02:11:00,VALID,916.778,VALID,0,VALID,100,VALID,0.0339617,VALID,18.9506,VALID,104,VALID,1.03199,
2004-07-12, 02:12:00,VALID,916.765,VALID,0,VALID,100,VALID,0.0509425,VALID,18.9502,VALID,107,VALID,1.01597,
2004-07-12, 02:13:01,VALID,916.747,VALID,0,VALID,100,VALID,0.0339617,VALID,18.9472,VALID,93,VALID,1.25391,
2004-07-12, 02:14:01,VALID,916.731,VALID,0,VALID,100,VALID,0.0509425,VALID,18.9569,VALID,116,VALID,1.21948,
2004-07-12, 02:15:00,VALID,916.715,VALID,0,VALID,100,VALID,0.0509425,VALID,18.9536,VALID,96,VALID,0.846768,
2004-07-12, 02:16:01,VALID,916.687,VALID,0,VALID,100,VALID,0.0509425,VALID,18.9598,VALID,92,VALID,0.814546,
2004-07-12, 02:17:00,VALID,916.662,VALID,0,VALID,100,VALID,0.0339617,VALID,18.9633,VALID,100,VALID,0.737645,
2004-07-12, 02:18:00,VALID,916.646,VALID,0,VALID,100,VALID,0.0339617,VALID,18.9635,VALID,76,VALID,0.688388,
2004-07-12, 02:19:01,VALID,916.634,VALID,0,VALID,100,VALID,0.0509425,VALID,18.9536,VALID,86,VALID,0.666295,
2004-07-12, 02:20:00,VALID,916.616,VALID,0,VALID,100,VALID,0.0509425,VALID,18.9571,VALID,73,VALID,0.525856,
2004-07-12, 02:21:00,VALID,916.595,VALID,0,VALID,100,VALID,0.0509425,VALID,18.9603,VALID,80,VALID,0.795201,
2004-07-12, 02:22:00,VALID,916.586,VALID,0,VALID,100,VALID,0.0169808,VALID,18.9732,VALID,79,VALID,0.639453,
2004-07-12, 02:23:00,VALID,916.575,VALID,0,VALID,100,VALID,0.0849042,VALID,18.97,VALID,86,VALID,0.636991,
2004-07-12, 02:24:00,VALID,916.558,VALID,0,VALID,99.987,VALID,0.0169808,VALID,18.9638,VALID,93,VALID,0.894531,
2004-07-12, 02:25:00,VALID,916.565,VALID,0,VALID,99.9494,VALID,0.0509425,VALID,18.9568,VALID,111,VALID,0.9375,
2004-07-12, 02:26:00,VALID,916.573,VALID,0,VALID,99.9214,VALID,0.0679233,VALID,18.9541,VALID,106,VALID,0.773074,
2004-07-12, 02:27:00,VALID,916.598,VALID,0,VALID,99.9367,VALID,0.0679233,VALID,18.9467,VALID,113,VALID,1.14097,
2004-07-12, 02:28:00,VALID,916.613,VALID,0,VALID,99.9405,VALID,0.0509425,VALID,18.9472,VALID,94,VALID,1.21857,
2004-07-12, 02:29:01,VALID,916.622,VALID,0,VALID,99.9379,VALID,0.0339617,VALID,18.9698,VALID,75,VALID,0.907639,
2004-07-12, 02:30:00,VALID,916.616,VALID,0,VALID,99.8337,VALID,0.0509425,VALID,18.9568,VALID,77,VALID,0.921131,
2004-07-12, 02:31:00,VALID,916.61,VALID,0,VALID,99.807,VALID,0.0849042,VALID,18.9536,VALID,79,VALID,0.741602,
2004-07-12, 02:32:00,VALID,916.571,VALID,0,VALID,99.821,VALID,0.0679233,VALID,18.9472,VALID,78,VALID,0.797852,
2004-07-12, 02:33:00,VALID,916.546,VALID,0,VALID,99.8527,VALID,0.0509425,VALID,18.9469,VALID,98,VALID,1.00723,
2004-07-12, 02:34:00,VALID,916.529,VALID,0,VALID,99.9023,VALID,0.101885,VALID,18.9464,VALID,127,VALID,1.08628,
2004-07-12, 02:35:00,VALID,916.509,VALID,0,VALID,99.9316,VALID,0.0849042,VALID,18.9534,VALID,123,VALID,0.80814,
2004-07-12, 02:36:00,VALID,916.504,VALID,0,VALID,99.9634,VALID,0.101885,VALID,18.97,VALID,129,VALID,1.09108,
2004-07-12, 02:37:00,VALID,916.502,VALID,0,VALID,99.9443,VALID,0,VALID,18.9677,VALID,127,VALID,1.01054,
2004-07-12, 02:38:01,VALID,916.485,VALID,0,VALID,99.9138,VALID,-0.0169808,VALID,18.968,VALID,107,VALID,0.846168,
2004-07-12, 02:39:00,VALID,916.482,VALID,0,VALID,99.91,VALID,-0.0509425,VALID,18.9615,VALID,92,VALID,0.815407,
2004-07-12, 02:40:01,VALID,916.461,VALID,0,VALID,99.8998,VALID,-0.0169808,VALID,18.9583,VALID,88,VALID,0.958757,
2004-07-12, 02:41:00,VALID,916.469,VALID,0,VALID,99.9011,VALID,-0.0339617,VALID,18.9622,VALID,97,VALID,0.767078,
2004-07-12, 02:42:00,VALID,916.477,VALID,0,VALID,99.8744,VALID,-0.0169808,VALID,18.9613,VALID,99,VALID,1.0752,
2004-07-12, 02:43:01,VALID,916.471,VALID,0,VALID,99.8464,VALID,-0.0509425,VALID,18.9682,VALID,95,VALID,0.739955,
2004-07-12, 02:44:01,VALID,916.48,VALID,0,VALID,99.8413,VALID,-0.0169808,VALID,18.9551,VALID,97,VALID,0.370094,
2004-07-12, 02:45:01,VALID,916.491,VALID,0,VALID,99.8591,VALID,-0.0679233,VALID,18.9585,VALID,131,VALID,0.696875,
2004-07-12, 02:46:00,VALID,916.496,VALID,0,VALID,99.8349,VALID,-0.101885,VALID,18.9555,VALID,118,VALID,0.824306,
2004-07-12, 02:47:01,VALID,916.507,VALID,0,VALID,99.8337,VALID,-0.0679233,VALID,18.9451,VALID,84,VALID,0.353087,
2004-07-12, 02:48:01,VALID,916.512,VALID,0,VALID,99.8451,VALID,-0.0679233,VALID,18.9486,VALID,56,VALID,0.6516,
2004-07-12, 02:49:00,VALID,916.514,VALID,0,VALID,99.868,VALID,-0.0679233,VALID,18.9553,VALID,37,VALID,1.06326,
2004-07-12, 02:50:00,VALID,916.509,VALID,0,VALID,99.8477,VALID,-0.0339617,VALID,18.9548,VALID,38,VALID,1.27725,
2004-07-12, 02:51:01,VALID,916.503,VALID,0,VALID,99.8197,VALID,-0.0509425,VALID,18.9486,VALID,42,VALID,1.2311,
2004-07-12, 02:52:01,VALID,916.489,VALID,0,VALID,99.8184,VALID,-0.0849042,VALID,18.9583,VALID,46,VALID,1.11418,
2004-07-12, 02:53:00,VALID,916.462,VALID,0,VALID,99.765,VALID,-0.101885,VALID,18.9458,VALID,44,VALID,1.23136,
2004-07-12, 02:54:01,VALID,916.431,VALID,0,VALID,99.7536,VALID,-0.0849042,VALID,18.9396,VALID,50,VALID,1.1908,
2004-07-12, 02:55:00,VALID,916.413,VALID,0,VALID,99.7675,VALID,-0.101885,VALID,18.92,VALID,55,VALID,0.98952,
2004-07-12, 02:56:00,VALID,916.401,VALID,0,VALID,99.765,VALID,-0.0849042,VALID,18.9103,VALID,76,VALID,0.863554,
2004-07-12, 02:57:01,VALID,916.391,VALID,0,VALID,99.7319,VALID,-0.101885,VALID,18.8974,VALID,97,VALID,0.779018,
2004-07-12, 02:58:01,VALID,916.392,VALID,0,VALID,99.7574,VALID,-0.101885,VALID,18.8813,VALID,107,VALID,1.00226,
2004-07-12, 02:59:00,VALID,916.385,VALID,0,VALID,99.7904,VALID,-0.0849042,VALID,18.8785,VALID,113,VALID,0.912109,
2004-07-12, 03:00:00,VALID,916.399,VALID,0,VALID,99.8032,VALID,-0.0849042,VALID,18.8617,VALID,107,VALID,1.01079,
2004-07-12, 03:01:00,VALID,916.4,VALID,0,VALID,99.8121,VALID,-0.101885,VALID,18.8587,VALID,110,VALID,1.01225,
2004-07-12, 03:02:00,VALID,916.422,VALID,0,VALID,99.8184,VALID,-0.101885,VALID,18.852,VALID,111,VALID,0.972098,
2004-07-12, 03:03:00,VALID,916.425,VALID,0,VALID,99.7854,VALID,-0.101885,VALID,18.8492,VALID,116,VALID,1.00533,
2004-07-12, 03:04:00,VALID,916.437,VALID,0,VALID,99.7485,VALID,-0.0849042,VALID,18.8358,VALID,115,VALID,1.05522,
2004-07-12, 03:05:00,VALID,916.449,VALID,0,VALID,99.676,VALID,-0.101885,VALID,18.8257,VALID,94,VALID,0.84561,
2004-07-12, 03:06:00,VALID,916.448,VALID,0,VALID,99.6289,VALID,-0.0849042,VALID,18.8194,VALID,89,VALID,0.886186,
2004-07-12, 03:07:01,VALID,916.452,VALID,0,VALID,99.6111,VALID,0,VALID,18.8187,VALID,76,VALID,0.413491,
2004-07-12, 03:08:00,VALID,916.452,VALID,0,VALID,99.6226,VALID,0.0169808,VALID,18.8049,VALID,89,VALID,0.736374,
2004-07-12, 03:09:00,VALID,916.44,VALID,0,VALID,99.5972,VALID,0.0169808,VALID,18.8155,VALID,128,VALID,1.01677,
2004-07-12, 03:10:01,VALID,916.447,VALID,0,VALID,99.5857,VALID,0.0169808,VALID,18.8051,VALID,124,VALID,0.824673,
2004-07-12, 03:11:00,VALID,916.422,VALID,0,VALID,99.5654,VALID,0.0339617,VALID,18.8051,VALID,132,VALID,0.88891,
2004-07-12, 03:12:00,VALID,916.403,VALID,0,VALID,99.5209,VALID,0.0169808,VALID,18.8053,VALID,121,VALID,1.19931,
2004-07-12, 03:13:00,VALID,916.38,VALID,0,VALID,99.5183,VALID,0.0169808,VALID,18.8053,VALID,125,VALID,1.04233,
2004-07-12, 03:14:00,VALID,916.365,VALID,0,VALID,99.4814,VALID,0,VALID,18.792,VALID,122,VALID,1.25614,
2004-07-12, 03:15:00,VALID,916.354,VALID,0,VALID,99.4509,VALID,0.0339617,VALID,18.812,VALID,107,VALID,1.05196,
2004-07-12, 03:16:00,VALID,916.349,VALID,0,VALID,99.4573,VALID,0.0509425,VALID,18.8088,VALID,104,VALID,0.921258,
2004-07-12, 03:17:00,VALID,916.357,VALID,0,VALID,99.4802,VALID,0.0339617,VALID,18.7987,VALID,91,VALID,0.812682,
2004-07-12, 03:18:01,VALID,916.346,VALID,0,VALID,99.4713,VALID,0,VALID,18.789,VALID,93,VALID,0.817708,
2004-07-12, 03:19:00,VALID,916.341,VALID,0,VALID,99.5018,VALID,0.0339617,VALID,18.7892,VALID,104,VALID,1.07719,
2004-07-12, 03:20:01,VALID,916.342,VALID,0,VALID,99.4942,VALID,-0.0169808,VALID,18.7857,VALID,102,VALID,0.880394,
2004-07-12, 03:21:00,VALID,916.335,VALID,0,VALID,99.4776,VALID,0.0169808,VALID,18.7726,VALID,111,VALID,0.794336,
2004-07-12, 03:22:00,VALID,916.315,VALID,0,VALID,99.4992,VALID,0.0169808,VALID,18.7825,VALID,124,VALID,0.932106,
2004-07-12, 03:23:00,VALID,916.313,VALID,0,VALID,99.5018,VALID,0.0169808,VALID,18.7857,VALID,121,VALID,0.688772,
2004-07-12, 03:24:01,VALID,916.295,VALID,0,VALID,99.4446,VALID,0,VALID,18.7857,VALID,120,VALID,0.733974,
2004-07-12, 03:25:00,VALID,916.274,VALID,0,VALID,99.3873,VALID,0,VALID,18.7959,VALID,125,VALID,0.707403,
2004-07-12, 03:26:01,VALID,916.279,VALID,0,VALID,99.3594,VALID,0,VALID,18.7825,VALID,117,VALID,0.609184,
2004-07-12, 03:27:00,VALID,916.272,VALID,0,VALID,99.3403,VALID,0,VALID,18.7828,VALID,124,VALID,0.242188,
2004-07-12, 03:28:01,VALID,916.279,VALID,0,VALID,99.3428,VALID,0.0169808,VALID,18.7984,VALID,124,VALID,0.0897529,
2004-07-12, 03:29:01,VALID,916.275,VALID,0,VALID,99.3657,VALID,0.0679233,VALID,18.795,VALID,124,VALID,0,
2004-07-12, 03:30:00,VALID,916.295,VALID,0,VALID,99.3556,VALID,0.0169808,VALID,18.8079,VALID,124,VALID,0.000390625,
2004-07-12, 03:31:01,VALID,916.29,VALID,0,VALID,99.2551,VALID,0.0339617,VALID,18.818,VALID,124,VALID,0.0910866,
2004-07-12, 03:32:00,VALID,916.28,VALID,0,VALID,99.2462,VALID,0.0679233,VALID,18.8113,VALID,124,VALID,0.0429688,
2004-07-12, 03:33:01,VALID,916.288,VALID,0,VALID,99.2373,VALID,0.0339617,VALID,18.8146,VALID,124,VALID,0,
2004-07-12, 03:34:00,VALID,916.28,VALID,0,VALID,99.2258,VALID,0.0679233,VALID,18.8307,VALID,124,VALID,0.0960366,
2004-07-12, 03:35:01,VALID,916.284,VALID,0,VALID,99.175,VALID,0.0339617,VALID,18.824,VALID,126,VALID,0.586846,
2004-07-12, 03:36:00,VALID,916.284,VALID,0,VALID,99.1063,VALID,0.0339617,VALID,18.8178,VALID,128,VALID,0.810369,
2004-07-12, 03:37:01,VALID,916.3,VALID,0,VALID,99.0949,VALID,-0.0679233,VALID,18.8194,VALID,135,VALID,1.10241,
2004-07-12, 03:38:00,VALID,916.319,VALID,0,VALID,99.1178,VALID,-0.101885,VALID,18.8328,VALID,145,VALID,0.635352,